Regional Weather Roundup
Issued by NWS Raleigh/Durham, NC

Home | Current Version | Previous Version | Text Only | Print | Product List | Glossary On
Versions: 1 2 3 4 5 6 7 8 9 10 11 12 13 14 15 16 17 18 19 20 21 22 23 24 25 26 27 28
000
ASUS42 KRAH 221310
RWRRAH
NORTH CAROLINA WEATHER ROUNDUP
NATIONAL WEATHER SERVICE RALEIGH NC
800 AM EST THU FEB 22 2018

NOTE: "FAIR" INDICATES FEW OR NO CLOUDS BELOW 12,000 FEET WITH NO
SIGNIFICANT WEATHER AND/OR OBSTRUCTIONS TO VISIBILITY.

NCZ001-053-055-056-065-067-221400-
WESTERN NORTH CAROLINA

CITY           SKY/WX    TMP DP  RH WIND       PRES   REMARKS
ASHEVILLE      FAIR      63  60  90 S13       30.46R
JEFFERSON      FAIR      59  56  88 S7        30.45R
MORGANTON      FAIR      64  62  94 S3        30.47R
HICKORY        CLOUDY    64  62  93 S12       30.45R
RUTHERFORDTON  CLOUDY    64  64 100 S8        30.46R
MOUNT AIRY     PTSUNNY   65  61  86 S3        30.46R
BOONE          CLOUDY    60  57  92 W9G20     30.48R
$$

NCZ021-022-025-041-071-084-088-221400-
CENTRAL NORTH CAROLINA

CITY           SKY/WX    TMP DP  RH WIND       PRES   REMARKS
CHARLOTTE      CLOUDY    66  64  93 SW10G20   30.46R
GREENSBORO     CLOUDY    64  63  96 SW8       30.44R
WINSTON-SALEM  CLOUDY    65  62  90 SW7       30.45R
RALEIGH-DURHAM CLOUDY    66  64  93 SW9       30.46R
FORT BRAGG     CLOUDY    66  66 100 S5        30.47R
FAYETTEVILLE   FOG       64  64 100 S3        30.48R VSB 1/4
BURLINGTON     CLOUDY    67  64  90 S7        30.44R
LAURINBURG     FOG       64  64 100 S8        30.49R VSB 1/2
$$

NCZ011-015-027-028-043-044-047-080-103-221400-
NORTHEASTERN NORTH CAROLINA

CITY           SKY/WX    TMP DP  RH WIND       PRES   REMARKS
ROCKY MT-WILSO CLOUDY    65  64  97 S7        30.47R FOG
GREENVILLE     CLOUDY    66  66 100 SW5       30.48R FOG
WASHINGTON     CLOUDY    65  64  96 SW6       30.49R FOG
ELIZABETH CITY FOG       64  64 100 SW7       30.48R VSB 1/4
MANTEO         FOG       60  60 100 SW3       30.49R VSB<1/4
CAPE HATTERAS  FAIR      65  64  97 SW6       30.49S FOG
$$

NCZ078-087-090-091-093-098-101-221400-
SOUTHEASTERN NORTH CAROLINA

CITY           SKY/WX    TMP DP  RH WIND       PRES   REMARKS
LUMBERTON      CLOUDY    64  64 100 S3        30.49R FOG
GOLDSBORO      CLOUDY    65  65  98 SW7       30.47R FOG
KINSTON        CLOUDY    66  66 100 SW12      30.50R FOG
KENANSVILLE    CLOUDY    64  64 100 CALM      30.50R FOG
NEW BERN       FAIR      64  64 100 S5        30.50R
CHERRY POINT   MOSUNNY   65  65 100 CALM      30.50S FOG
BEAUFORT       FAIR      64  64 100 SW5       30.50R FOG
JACKSONVILLE   MOSUNNY   67  66  97 SW3       30.49
WILMINGTON     FAIR      64  64 100 CALM      30.50R
$$





USA.gov is the U.S. government's official web portal to all federal, state and local government web resources and services.